RH
14 17 20 18 37 57 56 67 90 81 62 43 94 80 47 32 17 16 16 16 15 16 17 18 18 17 16 13 11 11 10 10 9 9 8 8 7 7 7 8 8 9 10
11 14 14 14 20 41 64 81 81 77 41 58 98 95 68 32 22 16 15 16 17 16 16 17 18 19 18 17 16 14 12 11 11 10 10 9 9 8 8 8 9 10 10
11 12 14 11 14 23 33 74 82 97 74 49 81 73 92 42 22 16 16 16 16 17 17 18 19 19 20 19 18 17 15 14 13 13 13 12 12 11 10 10 9 10 10
11 13 13 14 12 18 61 81 85 99 98 96 48 85 87 51 30 20 17 16 16 17 18 19 19 20 21 21 20 20 18 18 16 16 15 15 15 13 14 13 12 12 12
11 11 15 16 19 43 78 83 95 100 97 99 78 89 97 86 44 24 18 18 17 16 17 18 20 21 22 23 23 23 23 21 20 19 18 18 17 17 16 15 14 14 14
11 11 13 18 21 61 79 95 91 97 100 94 67 96 100 75 59 37 26 22 19 18 17 17 18 19 21 22 23 24 24 24 23 22 21 20 20 20 21 19 17 16 15
16 14 19 20 26 57 86 100 100 100 98 95 95 99 97 99 81 52 35 28 23 21 20 19 19 18 19 20 21 23 23 24 24 24 24 23 22 22 22 21 21 20 19
22 21 27 24 35 64 96 100 100 100 99 97 95 100 100 93 79 69 56 39 31 26 25 24 23 22 22 22 22 22 23 24 24 25 25 25 25 25 24 24 24 23 23
34 29 30 30 47 72 75 77 98 100 100 100 100 99 98 90 77 62 60 54 43 33 31 32 32 31 29 29 29 29 28 28 28 28 28 28 28 28 28 28 27 27 26
38 36 34 34 44 56 60 65 72 94 99 100 99 100 100 100 91 96 84 56 72 56 50 44 39 40 38 41 42 43 42 39 38 37 36 36 35 34 33 31 31 30 30
42 41 38 35 37 40 46 56 56 54 57 64 90 99 100 100 100 100 99 95 99 98 100 99 88 62 53 49 48 53 54 52 50 50 49 48 46 43 40 61 42 36 36
50 46 43 41 40 44 45 45 44 41 39 41 45 51 47 99 97 100 100 100 100 100 100 100 100 100 96 80 79 70 73 73 67 66 70 70 71 68 98 76 55 50 45
56 54 50 48 45 43 44 44 44 45 44 44 43 53 60 83 79 76 82 98 94 97 95 99 99 99 100 99 100 98 89 98 98 98 100 99 99 100 100 98 96 96 93
63 61 57 53 53 52 52 52 53 51 50 50 47 44 47 53 57 71 80 82 80 84 85 87 95 91 87 87 98 99 100 99 95 98 100 100 100 99 100 100 100 100 100
65 67 64 60 57 55 53 51 50 49 48 48 51 51 50 49 48 49 48 50 49 49 49 46 47 49 60 73 68 81 96 100 100 100 100 99 99 99 99 99 99 98 100
65 61 58 56 54 52 49 47 46 45 44 44 44 44 44 42 40 40 40 40 41 42 42 43 45 45 41 39 40 41 55 100 66 71 87 100 92 100 91 100 98 100 100
79 68 62 58 55 53 51 50 50 52 54 51 50 50 50 51 46 42 39 36 38 36 34 38 42 46 50 48 47 42 65 78 86 99 98 94 94 91 99 99 99 98 100
97 90 76 72 69 67 64 63 62 61 60 56 54 52 52 54 47 42 34 32 34 37 39 36 34 41 43 48 55 52 40 64 63 72 90 100 99 100 100 99 99 100 100
96 96 97 95 81 76 73 69 68 68 69 71 72 68 61 60 48 36 35 31 22 19 20 32 36 34 43 46 49 54 58 60 75 96 99 100 100 99 99 98 94 94 91
94 95 95 95 97 99 94 89 90 91 89 77 68 58 57 53 38 36 33 31 23 20 17 20 29 35 36 49 49 53 57 98 99 99 100 99 99 98 99 100 100 100 95
95 95 94 96 96 97 94 95 95 93 88 75 62 60 62 55 35 23 18 15 15 17 19 24 29 33 37 40 45 50 55 85 92 89 99 96 100 99 98 99 99 97 98
99 92 94 95 95 91 72 86 84 83 77 68 60 54 42 37 33 25 18 18 16 12 13 32 39 38 40 41 47 55 70 76 80 100 100 99 99 99 99 100 98 98 95
98 94 94 95 95 93 84 88 93 82 86 74 64 52 43 35 32 30 26 20 15 10 11 26 41 43 51 58 57 67 82 94 100 99 100 99 99 100 99 98 94 94 96
89 91 94 96 98 94 85 89 94 97 90 75 66 60 53 49 47 40 33 29 23 19 20 28 40 72 80 98 82 86 99 100 99 98 99 98 98 100 98 96 95 96 96
75 57 55 57 68 86 86 78 72 84 95 83 72 65 57 51 45 36 36 34 36 34 35 40 47 49 91 100 100 100 99 99 99 98 97 94 92 93 95 96 96 97 97
61 59 51 46 42 43 55 67 70 56 52 72 65 71 66 55 51 42 34 30 31 32 40 44 49 56 68 88 99 97 99 98 97 97 97 97 96 96 96 97 96 97 97
Wind_Speed
27 27 29 28 27 27 29 26 31 33 47 56 52 49 47 45 43 39 35 34 33 32 29 27 26 25 24 22 22 20 18 16 15 14 13 14 14 14 15 15 14 15 15
28 29 31 33 29 28 27 27 26 31 33 49 49 36 38 44 42 41 39 39 36 33 31 29 28 26 25 24 24 22 19 17 18 16 16 16 15 16 15 15 15 16 18
24 24 29 31 30 29 29 27 24 30 34 54 59 51 47 51 49 48 45 41 39 38 36 34 30 29 27 27 23 24 21 20 18 18 19 17 17 15 16 15 17 17 19
25 23 26 29 29 28 27 27 32 36 42 47 53 58 52 52 48 43 41 41 41 40 36 34 33 32 30 29 26 25 22 22 21 21 19 18 18 18 18 17 18 19 20
27 27 23 26 29 26 23 28 25 32 40 48 59 48 49 43 44 43 42 43 42 41 39 36 35 33 32 31 28 27 26 25 25 23 23 21 20 20 20 20 20 20 20
25 26 22 27 28 23 21 18 17 18 21 36 49 52 52 46 44 44 44 43 42 40 39 37 36 35 34 32 30 29 29 29 27 25 25 23 22 21 22 22 23 23 23
20 21 23 27 25 23 21 17 12 18 31 38 41 40 40 43 42 42 43 43 43 42 39 38 36 35 33 32 33 31 30 29 28 26 25 26 25 24 24 24 25 25 25
13 18 25 26 24 23 21 20 14 18 28 34 44 35 33 38 42 40 41 41 40 37 37 36 35 34 33 33 33 33 32 31 30 29 29 29 30 28 27 27 27 29 28
9 14 23 25 25 24 22 21 17 18 20 17 28 43 46 38 44 40 41 39 39 40 38 38 37 36 36 36 35 34 32 32 31 31 31 32 31 31 31 30 32 32 32
12 12 19 25 27 26 24 22 20 16 18 17 24 35 41 36 32 35 35 40 36 39 39 39 40 40 40 40 38 36 35 35 33 33 34 35 35 34 32 33 34 35 35
13 13 15 18 28 28 25 23 21 18 17 17 17 24 22 34 20 22 26 43 33 33 38 32 36 38 39 42 42 40 39 39 38 36 35 37 36 33 32 36 37 37 39
16 15 14 15 17 25 26 25 24 20 17 18 18 18 17 26 22 30 35 24 18 17 28 25 22 33 45 48 42 44 38 39 38 34 35 38 34 36 35 38 39 40 40
19 19 18 17 17 19 20 20 21 17 16 15 15 15 15 16 17 17 29 35 26 26 24 28 33 26 19 29 32 47 38 44 42 36 38 43 40 40 41 40 38 43 44
22 21 21 21 20 18 17 17 16 14 12 11 13 17 16 13 13 14 16 13 14 17 22 24 25 27 25 28 27 32 39 31 35 37 39 40 36 33 34 36 32 36 39
24 23 23 22 21 20 19 17 16 14 13 11 11 11 13 14 14 14 13 14 15 18 24 25 26 27 27 28 32 33 32 32 30 35 28 29 30 29 33 31 34 33 34
28 27 26 25 24 24 22 20 19 16 14 14 14 12 11 11 11 11 12 13 15 19 21 21 21 23 25 27 29 31 33 30 37 43 38 35 33 27 28 29 33 33 32
30 30 30 29 28 27 26 25 23 21 17 15 14 14 14 14 13 12 13 15 18 18 19 21 24 23 22 25 29 29 32 38 31 29 32 39 33 31 29 28 30 28 25
28 32 34 32 31 30 30 29 28 25 21 19 17 15 18 20 20 19 18 19 21 23 24 24 24 25 25 24 26 29 30 29 31 34 37 27 26 25 24 26 25 25 25
24 23 30 33 34 34 34 35 33 29 25 23 22 21 20 25 24 23 21 21 20 22 26 27 27 26 26 27 27 29 30 28 35 34 28 28 31 28 24 26 27 24 22
23 22 18 19 21 33 37 37 35 30 26 25 29 26 29 27 25 25 24 23 22 22 22 25 27 28 27 28 28 30 33 28 27 28 25 37 33 27 27 27 27 26 24
13 17 21 17 12 8 13 16 20 22 22 26 27 27 28 28 27 25 22 22 22 22 24 25 26 28 28 30 29 30 31 33 33 26 27 26 27 28 32 28 27 25 25
13 16 19 19 19 16 17 15 18 21 25 24 24 26 27 27 28 27 25 25 24 23 23 24 25 26 27 29 28 28 30 32 32 37 30 34 31 27 26 28 26 26 24
6 9 12 15 17 20 24 28 26 27 28 27 26 26 27 27 26 25 25 26 26 25 23 25 24 21 23 23 25 25 26 29 32 30 31 27 24 27 27 26 27 27 24
5 7 9 11 13 16 20 23 29 29 29 26 27 26 27 26 25 24 23 22 23 25 25 26 26 22 23 21 23 20 22 29 34 35 33 32 28 29 28 29 28 26 26
8 9 10 12 14 14 18 20 20 24 32 30 30 30 30 27 25 23 22 21 21 21 23 24 24 25 21 23 25 25 25 27 30 34 37 35 31 30 30 28 28 26 28
10 12 13 13 14 16 20 20 20 19 20 24 28 32 32 31 31 29 26 24 23 25 23 23 23 24 23 26 28 30 32 32 31 32 34 32 27 27 27 29 29 29 30
Wind_Direction
263 255 248 240 235 238 240 244 248 240 227 219 222 210 207 208 209 214 211 211 210 210 209 207 207 208 209 202 204 203 205 203 212 209 216 224 228 237 244 241 246 256 257
258 255 245 241 238 235 240 246 249 240 223 201 206 216 217 211 207 210 213 211 212 211 212 212 211 211 213 212 208 204 205 207 212 213 214 225 232 238 243 250 254 256 263
251 258 241 241 238 239 241 247 251 232 226 213 216 222 216 212 207 207 210 213 212 213 213 213 213 214 215 218 213 218 210 204 215 219 221 223 232 239 243 246 252 255 259
248 259 243 232 233 241 240 246 256 252 238 228 219 215 216 215 210 211 212 216 217 218 217 217 215 216 219 221 219 221 222 217 215 221 226 229 231 236 241 246 251 255 256
238 255 242 222 224 232 240 261 247 239 240 230 209 210 212 209 213 212 213 217 220 220 220 219 220 221 222 223 223 223 227 226 225 221 224 227 232 238 242 244 248 254 257
236 240 231 212 222 222 235 245 249 214 224 207 196 207 211 208 211 213 217 220 221 223 223 223 223 223 225 226 227 229 228 229 230 230 231 231 233 236 244 248 252 256 259
228 228 211 206 217 218 223 233 242 219 199 194 204 206 205 210 212 216 220 221 222 223 224 226 227 228 229 230 231 232 232 234 235 236 237 237 238 240 245 250 256 260 261
228 212 199 203 212 214 212 227 237 203 210 214 207 209 200 202 208 214 221 224 226 227 228 230 230 230 230 232 234 234 234 235 234 234 236 239 239 240 243 247 252 257 260
208 201 200 203 210 215 218 231 225 239 214 198 210 226 220 212 216 214 220 220 221 223 224 227 227 229 230 232 234 236 237 237 237 237 238 240 242 243 244 247 251 253 255
209 198 201 209 212 219 222 222 226 236 240 234 220 207 197 206 214 221 227 226 226 225 226 228 230 230 229 230 232 234 235 237 237 239 242 243 244 246 248 252 257 259 262
204 202 199 205 215 219 226 230 231 233 242 256 265 228 220 197 208 217 210 233 221 224 231 230 232 229 235 235 235 235 237 238 236 238 242 247 249 252 257 259 260 261 264
200 204 201 203 209 214 221 233 241 243 241 244 244 239 257 237 247 203 205 209 208 220 223 204 222 233 237 237 246 241 233 241 243 244 249 251 253 257 264 258 263 264 263
205 203 204 204 206 210 216 226 233 227 227 224 229 242 237 226 237 251 243 246 260 237 251 239 238 254 266 247 258 234 235 241 244 240 252 258 260 257 262 264 263 269 271
201 201 200 201 202 205 207 206 209 208 210 207 212 221 228 231 236 239 250 270 254 255 259 253 253 256 248 252 249 239 233 242 255 260 249 251 255 258 260 262 259 263 268
200 198 195 193 194 195 195 200 204 198 189 192 188 194 200 206 213 224 234 241 248 247 249 254 255 257 255 251 252 252 250 251 254 247 239 251 259 258 252 252 259 264 267
196 198 197 192 192 193 192 192 196 196 192 192 194 197 204 211 217 222 230 240 250 254 256 261 263 265 257 254 250 248 248 238 252 253 258 261 262 251 254 253 257 256 264
202 199 198 197 194 193 192 195 198 202 206 214 218 225 238 258 260 256 259 257 253 254 258 261 258 258 258 257 252 249 240 247 237 243 246 258 263 267 249 253 258 258 260
207 204 204 202 202 201 201 204 207 210 215 214 218 231 247 261 268 262 259 259 261 262 259 257 260 259 254 257 254 250 258 249 245 250 247 246 233 238 243 253 264 263 259
227 220 211 208 207 209 209 212 212 210 215 226 239 244 247 248 253 259 257 257 262 266 263 260 257 258 259 255 255 257 258 254 237 242 242 241 257 239 243 256 260 261 258
248 248 233 207 206 220 223 221 224 230 240 249 249 252 252 246 246 249 253 257 263 269 274 269 262 259 259 256 255 256 261 248 251 245 247 243 244 243 250 253 260 265 257
239 241 255 245 215 231 236 230 229 233 239 241 243 242 242 239 248 248 253 256 262 265 271 270 264 259 257 257 255 252 255 251 246 250 239 247 246 259 258 256 260 252 251
235 233 236 247 270 246 269 259 239 236 238 235 240 242 246 243 241 247 252 258 266 267 266 268 265 258 255 256 256 253 249 250 246 238 239 249 246 246 248 255 253 252 256
250 234 243 247 245 239 236 237 238 238 240 233 236 233 238 241 249 252 257 261 260 261 263 266 264 259 258 257 256 253 249 244 237 247 231 228 236 242 246 246 248 252 250
294 275 265 261 256 247 245 245 243 240 238 237 237 242 245 249 253 253 255 260 261 259 258 262 265 252 254 261 268 260 248 236 240 236 234 229 238 238 241 245 250 252 249
292 293 276 270 264 254 250 246 251 251 242 240 239 241 244 246 248 253 256 260 265 262 259 255 259 260 247 247 255 252 246 244 240 234 231 230 236 240 246 252 252 246 249
293 287 286 280 273 263 258 253 252 258 258 252 247 246 244 247 250 250 253 256 260 261 260 254 253 256 254 250 250 249 253 241 241 235 239 237 242 251 257 252 247 252 255